SENTINEL-6

Last updated on Thu Oct 30 2025 00:02:32 GMT+0000 (Coordinated Universal Time)

1 46984U 20086A 25302.21494839 -.00000038 00000+0 10125-3 0 9992 2 46984 66.0405 254.7840 0007937 268.6815 91.3291 12.80928984230748
UTC large
Height (km)
Speed (km/s)
/
Latitude / Longitude
Inclination (degrees)
Orbital Period (minutes)
Azimuth
Elevation
Range (km)
Doppler Factor

Next 0 passes for location: London (51.5072 / 0.1276)

Sorry there are no passes over London.